* Astronomy

Members Login
Username 
 
Password 
    Remember Me  
Post Info TOPIC: Asteroid 2015 YB


L

Posts: 131433
Date:
RE: Asteroid 2015 YB
Permalink  
 


The designation 2015 YB, announced on MPEC 2015-Y15, is being retracted.

MPEC 2015 - Y31 



__________________


L

Posts: 131433
Date:
Permalink  
 

Orbital elements:
2015 YB                                                  Earth MOID = 0.0004 AU
Epoch 2016 Jan. 13.0 TT = JDT 2457400.5                 MPC
M 352.31336              (2000.0)            P               Q
n   0.43044446     Peri.   62.76254     -0.85671006     -0.49608174
a   1.7372326      Node    87.19274     +0.40894458     -0.82015671
e   0.5421245      Incl.    8.12985     +0.31434408     -0.28503662
P   2.29           H   27.5           G   0.15           U   7

MPEC 2015 - Y15



__________________
Page 1 of 1  sorted by
 
Quick Reply

Please log in to post quick replies.



Create your own FREE Forum
Report Abuse
Powered by ActiveBoard